Mount Shasta, CA

4:11 AM PST on February 06, 2016 (GMT -0800)
Mount Shasta

Weather History for KMHS - January, 2013

Change the Weather History Date:

Friday, January 4, 2013

  Actual Average Record
Temperature  
Mean Temperature 32 °F 35 °F  
Max Temperature 44 °F 44 °F 65 °F (2001)
Min Temperature 20 °F 26 °F 2 °F (1949)
Degree Days  
Heating Degree Days 33 30  
Month to date heating degree days 145 120  
Since 1 July heating degree days 2164 2442  
Cooling Degree Days 0 0  
Month to date cooling degree days 0 0  
Year to date cooling degree days 0 0  
Moisture  
Dew Point 20 °F    
Average Humidity 75    
Maximum Humidity 88    
Minimum Humidity 45    
Precipitation  
Precipitation 0.00 in 0.23 in 3.28 in (1966)
Month to date precipitation 0.00 0.94  
Year to date precipitation 0.00 0.94  
Sea Level Pressure  
Sea Level Pressure 30.35 in    
Wind  
Wind Speed 2 mph (NNE)    
Max Wind Speed 8 mph    
Max Gust Speed 14 mph    
Visibility 7 miles    
Events      
T = Trace of Precipitation, MM = Missing Value Source: NWS Daily Summary

Daily Weather History Graph

Daily Weather History Graph

Search for Another Location

Airport or City:

Trip Planner

Search our weather history database for the weather conditions in past years. The results will help you decide how hot, cold, wet, or windy it might be!

Date:

Astronomy

Jan. 04, 2013 Rise Set
Actual Time 7:35 AM PST 4:53 PM PST
Civil Twilight 7:04 AM PST 5:24 PM PST
Nautical Twilight 6:29 AM PST 5:59 PM PST
Astronomical Twilight 5:56 AM PST 6:32 PM PST
Moon No Moon Rise 11:15 AM PST (1/4)
Length of Visible Light 10h 20m
Length of Day
9h 18m
Waning Gibbous, 54% of the Moon is Illuminated
Jan 4
Waning Gibbous
Jan 4
Last Quarter
Jan 11
New
Jan 18
First Quarter
Jan 26
Full

Hourly Weather History & Observations

Time (PST) Temp. Windchill Dew Point Humidity Pressure Visibility Wind Dir Wind Speed Gust Speed Precip Events Conditions
12:56 AM 23.0 °F 18.4 °F 19.0 °F 85% 30.38 in 6.0 mi NE 3.5 mph - N/A   Clear
1:56 AM 21.9 °F 17.2 °F 18.0 °F 85% 30.38 in 7.0 mi NE 3.5 mph - N/A   Clear
2:56 AM 21.9 °F - 18.0 °F 85% 30.38 in 5.0 mi Calm Calm - N/A   Clear
3:56 AM 21.0 °F - 17.1 °F 85% 30.38 in 10.0 mi Calm Calm - N/A   Clear
4:56 AM 21.0 °F - 17.1 °F 85% 30.40 in 10.0 mi Calm Calm - N/A   Clear
5:56 AM 21.0 °F 16.2 °F 16.0 °F 81% 30.40 in 10.0 mi NE 3.5 mph - N/A   Clear
6:56 AM 19.9 °F 14.9 °F 16.0 °F 85% 30.42 in 10.0 mi NE 3.5 mph - N/A   Clear
7:54 AM 19.4 °F - 15.8 °F 86% 30.27 in 2.0 mi Calm Calm - N/A   Clear
7:56 AM 19.9 °F - 16.0 °F 85% 30.42 in 2.5 mi Calm Calm - N/A   Clear
8:04 AM 19.4 °F - 15.8 °F 86% 30.27 in 3.0 mi Calm Calm - N/A   Clear
8:42 AM 23.0 °F - 17.6 °F 80% 30.28 in 2.0 mi Calm Calm - N/A   Haze
8:54 AM 24.8 °F - 19.4 °F 80% 30.28 in 4.0 mi Calm Calm - N/A   Haze
8:56 AM 24.1 °F - 19.0 °F 81% 30.43 in 4.0 mi Calm Calm - N/A   Haze
9:56 AM 35.1 °F 32.2 °F 23.0 °F 61% 30.41 in 10.0 mi Variable 3.5 mph - N/A   Clear
10:56 AM 35.1 °F 31.0 °F 21.9 °F 59% 30.41 in 10.0 mi Variable 4.6 mph - N/A   Clear
11:56 AM 37.9 °F 33.5 °F 23.0 °F 55% 30.37 in 10.0 mi Variable 5.8 mph - N/A   Clear
12:56 PM 42.1 °F 40.2 °F 23.0 °F 47% 30.33 in 10.0 mi NW 3.5 mph - N/A   Clear
1:56 PM 43.0 °F 40.3 °F 23.0 °F 45% 30.30 in 10.0 mi NW 4.6 mph - N/A   Clear
2:56 PM 43.0 °F 38.8 °F 24.1 °F 47% 30.30 in 10.0 mi NW 6.9 mph - N/A   Clear
3:56 PM 39.9 °F - 24.1 °F 53% 30.30 in 10.0 mi Calm Calm - N/A   Clear
4:56 PM 35.1 °F - 23.0 °F 61% 30.32 in 10.0 mi Calm Calm - N/A   Clear
5:56 PM 30.0 °F - 25.0 °F 82% 30.33 in 4.0 mi Calm Calm - N/A   Haze
6:56 PM 28.0 °F - 23.0 °F 81% 30.34 in 4.0 mi Calm Calm - N/A   Haze
7:56 PM 28.0 °F - 23.0 °F 81% 30.34 in 6.0 mi Calm Calm - N/A   Haze
8:56 PM 28.0 °F - 24.1 °F 85% 30.34 in 7.0 mi Calm Calm - N/A   Clear
9:56 PM 28.0 °F 24.2 °F 23.0 °F 81% 30.31 in 10.0 mi ENE 3.5 mph - N/A   Clear
10:56 PM 27.0 °F - 23.0 °F 85% 30.32 in 8.0 mi Calm Calm - N/A   Clear
11:56 PM 28.0 °F - 23.0 °F 81% 30.30 in 10.0 mi Calm Calm - N/A   Clear